Vorticity
10 16 12 10 8 10 8 9 10 24 13 7 8 13 21 15 12 8 12 70 20 13 18 16 10 12 5 5 5 5 9 3 2 5 5 5 5 8 8 7 6 2 6 6 6
12 5 9 7 0 7 9 11 8 14 15 16 23 8 10 18 13 16 19 38 43 20 -4 51 21 18 10 6 6 4 5 6 2 4 4 6 4 8 10 8 4 7 6 5 3
4 9 -0 7 3 -0 1 23 12 19 19 24 8 14 19 22 31 26 17 26 32 21 9 2 30 18 9 7 8 7 4 8 5 4 5 4 5 9 9 6 5 3 7 6 6
15 -4 7 1 6 8 8 14 8 13 18 15 22 22 31 32 28 15 26 22 21 25 -8 12 39 19 15 9 5 6 5 6 10 5 4 5 6 7 11 6 -0 3 4 4 1
3 9 3 -1 6 7 16 18 12 8 20 16 19 23 23 17 12 10 21 19 20 18 -2 4 28 28 15 12 8 7 7 4 10 7 5 4 7 7 9 3 5 2 -1 4 6
2 4 3 -3 9 12 16 20 20 8 18 13 15 14 10 28 20 25 16 23 14 14 -4 41 -13 35 15 16 10 7 6 6 9 7 6 5 7 7 8 3 5 2 4 4 4
3 7 -4 7 8 12 9 16 23 6 19 15 12 16 16 12 26 30 15 30 19 21 13 4 -16 31 14 15 10 10 7 6 8 7 5 4 6 8 9 6 3 3 3 5 4
9 5 2 9 7 12 8 14 26 12 17 -5 15 19 4 24 3 -1 27 29 21 12 18 -2 3 41 6 20 12 8 6 6 7 6 5 5 6 7 6 7 4 4 6 4 2
5 7 12 8 10 14 13 13 23 12 21 16 1 18 17 5 9 18 21 45 10 11 -10 11 38 33 12 12 11 12 8 5 6 6 3 4 6 8 5 7 1 6 3 3 3
7 11 11 11 10 12 15 15 22 19 23 12 11 18 7 -6 17 9 39 13 5 16 10 19 7 24 18 11 11 10 4 6 6 7 6 7 7 8 6 7 5 4 5 4 3
10 9 9 10 11 15 21 18 21 22 13 15 16 20 14 4 6 24 15 16 -7 47 -5 13 10 3 23 13 9 10 7 6 8 6 5 6 5 8 7 6 6 7 4 4 3
9 10 9 12 10 20 11 22 10 17 10 15 -0 6 11 7 7 21 8 9 -10 27 70 26 11 18 18 16 7 9 8 9 8 5 5 7 6 7 7 5 3 3 4 3 4
7 8 9 12 10 23 8 18 7 13 14 17 16 35 25 10 9 8 19 14 4 -25 -3 38 10 21 17 17 6 7 8 8 6 5 6 8 10 7 5 5 6 5 4 5 5
5 6 9 13 11 26 12 14 11 7 -2 22 10 20 27 1 13 6 4 24 24 28 -18 -6 50 23 14 19 7 8 1 8 8 7 8 4 8 7 6 3 4 5 5 6 4
5 5 7 12 9 21 16 6 16 7 6 21 23 17 37 11 11 14 5 15 12 26 15 10 6 30 6 16 12 9 8 7 6 7 7 7 7 7 6 7 5 4 6 6 7
4 4 5 9 10 22 24 11 13 13 9 18 6 26 16 31 10 29 12 12 4 -4 6 4 3 30 6 15 10 11 9 7 8 8 10 6 6 8 6 6 6 6 6 6 6
9 5 6 7 12 22 25 15 9 11 11 21 9 5 15 20 18 18 22 23 -17 14 7 5 7 22 16 12 13 8 8 8 7 9 11 5 7 4 6 5 7 6 7 7 6
11 8 5 6 12 11 20 11 9 11 10 21 5 6 10 16 11 6 13 30 6 -5 14 2 33 16 17 8 11 7 14 9 4 4 6 5 10 10 5 7 7 7 7 8 8
8 12 6 6 5 11 18 13 18 9 15 9 21 6 13 18 11 13 3 3 4 3 6 21 25 12 19 7 11 11 9 10 14 10 8 5 7 5 10 10 9 7 5 9 12
7 10 11 6 6 9 7 26 10 15 13 13 12 21 8 5 5 5 -2 2 8 -2 13 10 15 18 15 10 10 14 11 13 10 13 8 9 5 13 10 6 13 11 8 7 6
9 8 14 8 7 5 13 8 25 12 17 9 14 14 25 10 17 15 19 17 9 11 21 3 16 17 12 9 10 6 10 10 7 6 9 10 11 11 11 14 11 10 8 7 7
7 7 11 13 7 6 6 14 12 22 13 15 12 13 11 8 19 14 7 10 13 7 8 19 10 17 18 10 10 6 9 8 8 11 10 12 12 15 12 9 4 7 10 9 6
6 7 8 10 7 7 7 8 10 19 17 17 14 13 10 11 7 22 16 20 16 10 24 9 6 13 18 15 9 8 5 6 8 8 8 11 16 10 7 6 7 7 6 4 3
6 5 10 9 14 7 7 6 12 6 21 16 17 16 15 12 4 15 22 11 14 17 12 24 4 16 26 15 11 7 7 5 4 4 7 9 8 8 8 7 7 6 4 2 2
5 5 6 9 10 15 6 6 5 14 9 18 16 17 20 15 8 3 15 29 18 18 10 12 16 18 16 14 16 9 9 7 8 11 7 9 4 9 6 5 5 2 2 3 4
4 6 5 7 9 10 13 5 6 6 14 12 15 16 21 16 12 7 12 -0 15 21 17 19 17 19 18 11 20 6 12 10 9 11 9 8 4 6 6 4 3 1 3 5 5
5 6 6 6 9 8 9 13 5 5 3 11 15 13 14 20 11 10 7 10 6 21 9 32 15 19 17 6 17 20 12 11 8 6 4 5 4 5 5 2 4 5 6 4 4
Height
5735 5726 5717 5708 5700 5690 5681 5673 5665 5659 5654 5650 5646 5641 5636 5633 5632 5632 5638 5641 5649 5660 5675 5690 5703 5715 5729 5742 5754 5764 5775 5787 5799 5807 5814 5821 5827 5832 5838 5843 5849 5854 5858 5861 5864
5729 5719 5709 5702 5693 5682 5674 5666 5658 5651 5644 5638 5633 5628 5623 5618 5618 5620 5621 5622 5632 5646 5661 5674 5689 5702 5715 5729 5741 5752 5768 5782 5792 5801 5808 5816 5822 5828 5834 5840 5846 5851 5855 5857 5860
5722 5712 5706 5697 5686 5676 5669 5659 5651 5642 5634 5627 5622 5616 5609 5604 5603 5608 5609 5614 5623 5638 5652 5662 5671 5686 5702 5716 5732 5745 5760 5773 5783 5793 5801 5810 5816 5823 5830 5835 5841 5846 5850 5853 5856
5717 5709 5701 5690 5681 5672 5663 5652 5643 5635 5626 5618 5611 5604 5597 5594 5595 5599 5602 5607 5615 5630 5651 5655 5660 5674 5690 5705 5721 5736 5750 5763 5774 5785 5794 5804 5810 5816 5823 5830 5834 5840 5845 5850 5852
5713 5705 5695 5685 5676 5667 5656 5646 5636 5628 5618 5610 5604 5597 5591 5589 5591 5593 5596 5602 5609 5622 5640 5650 5655 5667 5682 5698 5711 5726 5740 5755 5766 5777 5787 5797 5804 5811 5818 5824 5830 5836 5842 5846 5849
5709 5701 5691 5681 5671 5661 5650 5639 5629 5621 5613 5606 5601 5594 5590 5587 5586 5587 5592 5598 5604 5617 5631 5638 5647 5658 5673 5688 5704 5717 5730 5746 5757 5768 5780 5790 5798 5804 5811 5818 5825 5831 5837 5841 5845
5706 5697 5687 5677 5666 5655 5644 5633 5624 5616 5609 5604 5599 5594 5590 5587 5584 5584 5587 5594 5602 5614 5625 5634 5641 5650 5665 5680 5694 5710 5723 5737 5749 5761 5772 5783 5791 5799 5807 5813 5820 5826 5832 5838 5841
5703 5694 5683 5672 5661 5650 5640 5629 5619 5613 5607 5603 5598 5595 5592 5589 5587 5585 5587 5595 5603 5613 5623 5630 5641 5649 5661 5674 5688 5702 5715 5729 5742 5754 5766 5776 5787 5794 5801 5808 5815 5822 5827 5832 5835
5699 5690 5679 5668 5657 5646 5636 5626 5617 5611 5605 5602 5599 5596 5595 5591 5589 5590 5590 5596 5605 5614 5625 5632 5638 5646 5657 5668 5681 5694 5709 5724 5737 5747 5761 5770 5780 5789 5797 5803 5810 5816 5822 5826 5831
5697 5688 5677 5666 5655 5644 5635 5625 5616 5611 5605 5602 5599 5599 5597 5597 5594 5593 5594 5601 5610 5617 5622 5629 5636 5644 5652 5662 5674 5694 5708 5720 5732 5742 5753 5765 5774 5784 5792 5799 5806 5812 5817 5822 5826
5695 5685 5675 5663 5653 5643 5634 5624 5618 5612 5606 5603 5599 5598 5598 5598 5597 5595 5600 5605 5608 5615 5622 5629 5635 5643 5655 5673 5687 5698 5705 5716 5727 5737 5748 5759 5769 5778 5786 5794 5802 5808 5813 5816 5819
5694 5685 5674 5662 5653 5643 5634 5625 5618 5613 5607 5603 5601 5599 5599 5599 5600 5599 5604 5608 5613 5619 5622 5629 5633 5642 5652 5664 5678 5692 5702 5713 5724 5734 5744 5755 5764 5773 5782 5789 5795 5801 5806 5811 5816
5694 5684 5673 5662 5653 5643 5634 5626 5619 5613 5608 5603 5600 5597 5598 5600 5602 5602 5604 5608 5614 5620 5624 5630 5636 5641 5651 5660 5675 5689 5701 5712 5723 5730 5740 5750 5761 5769 5778 5784 5790 5798 5803 5808 5812
5693 5684 5674 5663 5654 5644 5635 5627 5621 5615 5610 5606 5602 5598 5599 5602 5604 5604 5604 5610 5615 5621 5626 5631 5637 5642 5652 5662 5675 5690 5699 5709 5720 5728 5738 5747 5757 5765 5773 5781 5787 5792 5798 5802 5807
5692 5684 5675 5663 5654 5645 5637 5629 5624 5619 5614 5610 5605 5603 5602 5605 5607 5608 5608 5612 5617 5623 5631 5635 5639 5644 5654 5663 5673 5687 5698 5709 5717 5724 5736 5745 5754 5761 5768 5775 5783 5788 5793 5798 5802
5692 5685 5677 5667 5656 5647 5638 5631 5627 5623 5617 5613 5608 5606 5606 5606 5608 5611 5613 5616 5620 5627 5632 5637 5641 5648 5656 5664 5673 5684 5695 5706 5715 5723 5729 5737 5745 5756 5763 5772 5777 5783 5789 5794 5798
5691 5686 5678 5669 5660 5650 5641 5635 5631 5625 5621 5617 5612 5610 5609 5609 5611 5614 5617 5619 5624 5629 5635 5640 5644 5649 5657 5664 5672 5681 5690 5700 5710 5716 5724 5734 5741 5752 5758 5766 5772 5778 5785 5790 5793
5692 5686 5680 5672 5662 5653 5645 5639 5634 5630 5624 5619 5617 5615 5614 5614 5616 5618 5621 5624 5629 5633 5636 5641 5647 5650 5657 5665 5674 5681 5692 5702 5707 5714 5723 5732 5736 5748 5756 5763 5769 5775 5780 5785 5788
5692 5687 5681 5674 5666 5657 5649 5642 5637 5633 5629 5624 5622 5621 5620 5620 5622 5624 5627 5630 5633 5637 5641 5644 5649 5653 5660 5667 5674 5682 5691 5701 5709 5717 5725 5730 5736 5748 5754 5760 5766 5771 5776 5779 5782
5693 5688 5682 5676 5669 5661 5653 5646 5641 5635 5631 5628 5626 5625 5624 5625 5626 5628 5630 5634 5637 5640 5644 5647 5650 5654 5660 5667 5674 5684 5691 5700 5706 5714 5720 5728 5736 5745 5752 5758 5763 5766 5770 5772 5774
5693 5688 5684 5678 5672 5665 5658 5650 5644 5639 5635 5633 5630 5629 5628 5629 5629 5630 5633 5635 5637 5642 5645 5649 5653 5657 5661 5666 5674 5681 5689 5698 5705 5713 5719 5727 5736 5743 5749 5753 5757 5761 5764 5766 5768
5693 5689 5684 5679 5675 5667 5661 5654 5648 5643 5639 5636 5634 5633 5633 5633 5633 5633 5634 5635 5637 5640 5644 5648 5652 5656 5663 5668 5675 5681 5689 5697 5704 5713 5720 5727 5736 5739 5744 5748 5752 5755 5758 5761 5763
5693 5689 5685 5680 5676 5671 5665 5659 5653 5648 5643 5640 5638 5636 5636 5636 5637 5636 5637 5639 5640 5642 5644 5648 5652 5655 5661 5668 5673 5680 5688 5695 5703 5711 5718 5726 5732 5736 5740 5744 5748 5750 5753 5756 5758
5694 5690 5686 5682 5678 5674 5668 5664 5658 5652 5648 5644 5642 5640 5639 5639 5639 5640 5640 5641 5642 5644 5646 5649 5652 5656 5663 5670 5674 5681 5688 5693 5701 5709 5717 5724 5729 5732 5736 5740 5743 5746 5749 5751 5751
5693 5690 5686 5682 5679 5675 5671 5666 5662 5657 5652 5649 5645 5642 5642 5642 5642 5642 5642 5642 5645 5646 5649 5651 5653 5656 5660 5667 5674 5679 5685 5692 5700 5707 5714 5720 5725 5730 5734 5737 5740 5741 5743 5744 5745
5692 5689 5686 5683 5680 5676 5673 5669 5666 5662 5657 5654 5650 5647 5645 5645 5646 5646 5646 5647 5647 5649 5650 5652 5655 5658 5662 5667 5673 5678 5683 5689 5697 5704 5712 5719 5723 5726 5729 5731 5733 5735 5736 5738 5738
5689 5688 5686 5683 5680 5678 5675 5671 5668 5665 5663 5659 5656 5653 5651 5650 5650 5650 5651 5651 5651 5652 5653 5654 5657 5661 5665 5669 5674 5680 5686 5691 5697 5703 5708 5713 5719 5720 5724 5726 5728 5730 5731 5732 5733